Weather History for Linden, NJ

Change the Weather History Date:

Thursday, January 17, 2013

  Actual Average (KEWR) Record (KEWR)
Temperature  
Mean Temperature 42 °F 31 °F  
Max Temperature 45 °F 38 °F 62 °F (1990)
Min Temperature 38 °F 24 °F -7 °F (1982)
Degree Days  
Heating Degree Days 24 34  
Month to date heating degree days 568  
Since 1 July heating degree days 2318  
Cooling Degree Days 0 0  
Month to date cooling degree days 0  
Year to date cooling degree days 0  
Moisture  
Dew Point 30 °F    
Average Humidity 64    
Maximum Humidity 86    
Minimum Humidity 51    
Precipitation  
Precipitation 0.00 in 0.11 in 1.42 in (1994)
Month to date precipitation 2.01  
Year to date precipitation 2.01  
Snow  
Snow 0.00 in 0.30 in 3.30 in (1985)
Month to date snowfall 4.3  
Since 1 July snowfall 10.1  
Snow Depth -    
Sea Level Pressure  
Sea Level Pressure 30.03 in    
Wind  
Wind Speed 6 mph (WNW)    
Max Wind Speed 13 mph    
Max Gust Speed 21 mph    
Visibility 10 miles    
Events      
T = Trace of Precipitation, MM = Missing Value Source: NWS Daily Summary

Daily Weather History Graph

Daily Weather History Graph

Search for Another Location

Airport:

Trip Planner

Search our weather history database for the weather conditions in past years. The results will help you decide how hot, cold, wet, or windy it might be!

Date:

Astronomy

Jan. 17, 2013 Rise Set
Actual Time 7:17 AM EST 4:57 PM EST
Civil Twilight 6:47 AM EST 5:27 PM EST
Nautical Twilight 6:14 AM EST 6:00 PM EST
Astronomical Twilight 5:41 AM EST 6:33 PM EST
Moon 10:21 AM EST (1/17) 11:48 PM EST (1/17)
Length of Visible Light 10h 39m
Length of Day
9h 39m
Waxing Crescent, 37% of the Moon is Illuminated
Jan 17
Waxing Crescent
Jan 18
First Quarter
Jan 26
Full
Feb 3
Last Quarter
Feb 10
New

Hourly Weather History & Observations

Time (EST) Temp. Windchill Dew Point Humidity Pressure Visibility Wind Dir Wind Speed Gust Speed Precip Events Conditions
12:15 AM 38.8 °F 34.6 °F 34.9 °F 86% 29.93 in 10.0 mi West 5.8 mph - N/A   Clear
12:35 AM 38.8 °F 33.8 °F 35.1 °F 86% 29.94 in 10.0 mi West 6.9 mph - N/A   Clear
12:55 AM 39.0 °F 34.8 °F 35.1 °F 86% 29.95 in 10.0 mi WSW 5.8 mph - N/A   Clear
1:15 AM 39.2 °F 35.9 °F 34.9 °F 84% 29.93 in 10.0 mi West 4.6 mph - N/A   Clear
1:35 AM 39.2 °F 34.2 °F 34.9 °F 84% 29.94 in 10.0 mi West 6.9 mph - N/A   Scattered Clouds
1:55 AM 39.2 °F 37.0 °F 34.9 °F 84% 29.95 in 10.0 mi WSW 3.5 mph - N/A   Scattered Clouds
2:15 AM 39.4 °F 34.5 °F 34.9 °F 84% 29.95 in 10.0 mi West 6.9 mph - N/A   Clear
2:35 AM 39.6 °F 37.4 °F 34.7 °F 83% 29.95 in 10.0 mi WSW 3.5 mph - N/A   Clear
2:55 AM 39.9 °F 36.7 °F 34.7 °F 82% 29.96 in 10.0 mi WSW 4.6 mph - N/A   Mostly Cloudy
3:15 AM 40.1 °F 38.0 °F 34.3 °F 80% 29.96 in 10.0 mi WSW 3.5 mph - N/A   Overcast
3:55 AM 40.1 °F - 33.8 °F 78% 29.95 in 10.0 mi Calm Calm - N/A   Clear
4:15 AM 40.5 °F - 33.1 °F 75% 29.94 in 10.0 mi Calm Calm - N/A   Scattered Clouds
4:35 AM 40.1 °F 36.1 °F 32.9 °F 75% 29.94 in 10.0 mi WNW 5.8 mph - N/A   Mostly Cloudy
4:55 AM 40.1 °F 35.3 °F 32.2 °F 73% 29.94 in 10.0 mi West 6.9 mph - N/A   Scattered Clouds
5:15 AM 41.0 °F 38.0 °F 31.6 °F 69% 29.95 in 10.0 mi West 4.6 mph - N/A   Clear
5:35 AM 40.6 °F 35.4 °F 31.3 °F 69% 29.96 in 10.0 mi West 8.1 mph - N/A   Clear
5:55 AM 40.3 °F 34.4 °F 31.1 °F 70% 29.96 in 10.0 mi WNW 9.2 mph - N/A   Scattered Clouds
6:15 AM 40.3 °F 34.9 °F 31.1 °F 70% 29.98 in 10.0 mi West 8.1 mph - N/A   Scattered Clouds
6:35 AM 40.1 °F 35.3 °F 31.1 °F 70% 29.99 in 10.0 mi West 6.9 mph - N/A   Clear
6:55 AM 39.7 °F 34.9 °F 30.7 °F 70% 30.00 in 10.0 mi West 6.9 mph - N/A   Clear
7:15 AM 40.3 °F 36.3 °F 30.4 °F 68% 30.02 in 10.0 mi West 5.8 mph - N/A   Clear
7:35 AM 39.6 °F 35.4 °F 30.9 °F 71% 30.02 in 10.0 mi WNW 5.8 mph - N/A   Clear
7:55 AM 39.9 °F 35.8 °F 30.2 °F 68% 30.03 in 10.0 mi West 5.8 mph - N/A   Clear
8:15 AM 40.1 °F 34.7 °F 30.6 °F 69% 30.06 in 10.0 mi West 8.1 mph - N/A   Clear
8:35 AM 40.1 °F 35.3 °F 30.2 °F 68% 30.06 in 10.0 mi West 6.9 mph - N/A   Clear
8:55 AM 40.3 °F 36.3 °F 30.2 °F 67% 30.06 in 10.0 mi West 5.8 mph - N/A   Clear
9:15 AM 40.5 °F 36.5 °F 30.2 °F 67% 30.07 in 10.0 mi West 5.8 mph - N/A   Clear
9:35 AM 41.2 °F 36.6 °F 30.2 °F 65% 30.08 in 10.0 mi West 6.9 mph - N/A   Clear
10:15 AM 43.7 °F 38.6 °F 30.6 °F 60% 30.07 in 10.0 mi West 9.2 mph 17.3 mph N/A   Clear
10:55 AM 43.0 °F 36.4 °F 29.5 °F 59% 30.08 in 10.0 mi NW 12.7 mph 17.3 mph N/A   Clear
11:15 AM 43.5 °F 37.9 °F 29.7 °F 58% 30.07 in 10.0 mi WNW 10.4 mph 16.1 mph N/A   Clear
11:35 AM 43.0 °F 38.2 °F 29.7 °F 59% 30.07 in 10.0 mi NW 8.1 mph 20.7 mph N/A   Clear
11:55 AM 43.2 °F 37.4 °F 29.7 °F 59% 30.06 in 10.0 mi NW 10.4 mph - N/A   Clear
12:15 PM 45.0 °F 40.1 °F 30.6 °F 57% 30.07 in 10.0 mi WNW 9.2 mph 17.3 mph N/A   Clear
12:35 PM 45.5 °F 41.3 °F 30.2 °F 55% 30.06 in 10.0 mi WNW 8.1 mph - N/A   Clear
12:55 PM 45.5 °F 40.3 °F 28.9 °F 52% 30.06 in 10.0 mi WNW 10.4 mph 17.3 mph N/A   Scattered Clouds
1:15 PM 45.5 °F 39.9 °F 28.4 °F 51% 30.05 in 10.0 mi NW 11.5 mph 17.3 mph N/A   Scattered Clouds
1:35 PM 45.1 °F 39.9 °F 28.4 °F 52% 30.05 in 10.0 mi NW 10.4 mph - N/A   Clear
1:55 PM 45.1 °F 40.8 °F 28.6 °F 52% 30.05 in 10.0 mi NW 8.1 mph - N/A   Clear
2:15 PM 45.0 °F 40.6 °F 28.6 °F 53% 30.04 in 10.0 mi WNW 8.1 mph - N/A   Clear
2:35 PM 44.8 °F 40.4 °F 28.2 °F 52% 30.04 in 10.0 mi NNW 8.1 mph - N/A   Clear
2:55 PM 44.6 °F 40.2 °F 28.0 °F 52% 30.05 in 10.0 mi NNW 8.1 mph - N/A   Clear
3:15 PM 44.2 °F 38.8 °F 27.7 °F 52% 30.04 in 10.0 mi NW 10.4 mph - N/A   Clear
3:35 PM 43.9 °F 39.3 °F 27.3 °F 52% 30.06 in 10.0 mi NW 8.1 mph - N/A   Clear
3:55 PM 43.7 °F 40.3 °F 27.1 °F 52% 30.06 in 10.0 mi NW 5.8 mph - N/A   Clear
4:15 PM 43.3 °F 38.6 °F 26.6 °F 52% 30.06 in 10.0 mi NW 8.1 mph - N/A   Clear
4:35 PM 43.0 °F 38.2 °F 26.4 °F 52% 30.07 in 10.0 mi NW 8.1 mph - N/A   Clear
4:55 PM 42.8 °F 39.3 °F 26.4 °F 52% 30.08 in 10.0 mi WNW 5.8 mph - N/A   Mostly Cloudy
5:15 PM 42.4 °F 39.6 °F 27.0 °F 54% 30.09 in 10.0 mi WNW 4.6 mph - N/A   Overcast
5:35 PM 42.3 °F 38.6 °F 27.7 °F 56% 30.09 in 10.0 mi WNW 5.8 mph - N/A   Overcast
5:55 PM 42.4 °F 40.7 °F 27.1 °F 55% 30.08 in 10.0 mi NW 3.5 mph - N/A   Overcast
6:15 PM 42.3 °F 40.5 °F 27.3 °F 56% 30.09 in 10.0 mi NW 3.5 mph - N/A   Overcast
6:35 PM 42.3 °F 39.4 °F 26.8 °F 54% 30.09 in 10.0 mi NNW 4.6 mph - N/A   Overcast
6:55 PM 41.7 °F - 28.4 °F 59% 30.10 in 10.0 mi Calm Calm - N/A   Overcast
7:15 PM 42.1 °F - 27.5 °F 56% 30.09 in 10.0 mi Calm Calm - N/A   Overcast
7:55 PM 41.4 °F - 28.2 °F 60% 30.09 in 10.0 mi Calm Calm - N/A   Overcast
8:15 PM 41.9 °F 40.0 °F 27.1 °F 56% 30.09 in 10.0 mi North 3.5 mph - N/A   Overcast
8:35 PM 41.5 °F 38.6 °F 26.8 °F 56% 30.08 in 10.0 mi North 4.6 mph - N/A   Overcast
8:55 PM 41.2 °F 36.6 °F 26.4 °F 56% 30.06 in 10.0 mi North 6.9 mph - N/A   Overcast
9:15 PM 40.6 °F 35.4 °F 25.5 °F 55% 30.07 in 10.0 mi North 8.1 mph - N/A   Overcast
9:35 PM 40.1 °F 35.3 °F 25.5 °F 56% 30.06 in 10.0 mi North 6.9 mph - N/A   Overcast
9:55 PM 39.6 °F 34.7 °F 25.7 °F 58% 30.06 in 10.0 mi North 6.9 mph - N/A   Overcast
10:15 PM 39.2 °F 35.0 °F 26.1 °F 59% 30.04 in 10.0 mi North 5.8 mph - N/A   Overcast
10:35 PM 39.0 °F 34.0 °F 25.9 °F 59% 30.04 in 10.0 mi North 6.9 mph - N/A   Scattered Clouds
10:55 PM 38.7 °F 34.3 °F 26.1 °F 61% 30.03 in 10.0 mi North 5.8 mph - N/A   Mostly Cloudy